Location: Oak Glen
(34.0495°N, 116.9470°E)
Time: 14:29:36
(UTC-07:00)

OTV 5 (USA 277) - Pass Details

Date: 14 October 2017
Orbit: 404 x 417 km, 43.0° (Epoch: 07 September)

Event Time Altitude Azimuth Distance (km) Brightness Sun altitude
Rises 04:12:37 0° 290° (WNW) 2,349 ? -20.0°
Reaches altitude 10° 04:15:12 10° 310° (NW) 1,486 ? -20.6°
Maximum altitude 04:17:35 18° 355° (N) 1,102 ? -21.1°
Enters shadow 04:17:44 18° 359° (N) 1,104 ? -21.1°
